timestamp,wind_dir_avg,wind_spd_avg,wind_spd_max_dir,wind_spd_gust,battery_voltage,lat,long
2022-11-18 00:04:00+00:00,250.0,13.33,247.0,15.67,12.41,47.59359,-54.27349
2022-11-18 00:14:01+00:00,249.0,14.09,245.0,15.81,12.41,47.59359,-54.27349
2022-11-18 00:24:01+00:00,250.0,13.38,249.0,15.75,12.41,47.59359,-54.27349
2022-11-18 00:34:01+00:00,250.0,14.62,249.0,15.74,12.41,47.59359,-54.27349
2022-11-18 00:44:01+00:00,251.0,13.21,251.0,15.25,12.41,47.59359,-54.27349
2022-11-18 00:54:01+00:00,238.0,10.67,245.0,14.63,12.41,47.59359,-54.27349
2022-11-18 01:04:01+00:00,252.0,13.75,247.0,15.72,12.41,47.59359,-54.27349
2022-11-18 01:14:00+00:00,258.0,13.44,258.0,15.09,12.33,47.59359,-54.27349
2022-11-18 01:24:00+00:00,246.0,10.62,249.0,15.64,12.33,47.59359,-54.27349
2022-11-18 01:34:00+00:00,254.0,14.08,251.0,15.27,12.33,47.59359,-54.27349
2022-11-18 01:44:00+00:00,253.0,13.75,253.0,15.14,12.33,47.59359,-54.27349
2022-11-18 01:54:00+00:00,256.0,11.74,259.0,14.82,12.33,47.59359,-54.27349
2022-11-18 02:04:00+00:00,245.0,14.25,237.0,16.01,12.33,47.59359,-54.27349
2022-11-18 02:14:01+00:00,242.0,16.31,247.0,21.85,12.33,47.59359,-54.27349
2022-11-18 02:24:01+00:00,245.0,15.35,250.0,17.35,12.33,47.59359,-54.27349
2022-11-18 02:34:01+00:00,240.0,14.71,236.0,16.3,12.33,47.59359,-54.27349
2022-11-18 02:44:01+00:00,243.0,14.9,241.0,17.23,12.33,47.59359,-54.27349
2022-11-18 02:54:01+00:00,237.0,15.16,232.0,17.34,12.33,47.59359,-54.27349
2022-11-18 03:04:01+00:00,238.0,14.92,236.0,16.92,12.33,47.59359,-54.27349
2022-11-18 03:14:00+00:00,240.0,14.78,241.0,16.5,12.25,47.59359,-54.27349
2022-11-18 03:24:00+00:00,244.0,14.65,246.0,16.95,12.25,47.59359,-54.27349
2022-11-18 03:34:00+00:00,246.0,14.43,243.0,15.72,12.25,47.59359,-54.27349
2022-11-18 03:44:00+00:00,241.0,14.55,239.0,16.63,12.25,47.59359,-54.27349
2022-11-18 03:54:00+00:00,247.0,13.58,245.0,15.48,12.25,47.59359,-54.27349
2022-11-18 04:04:00+00:00,248.0,13.64,250.0,15.39,12.25,47.59359,-54.27349
2022-11-18 04:14:00+00:00,248.0,14.91,244.0,16.56,12.25,47.59359,-54.27349
2022-11-18 04:24:00+00:00,243.0,14.35,234.0,16.23,12.25,47.59359,-54.27349
2022-11-18 04:34:00+00:00,244.0,15.16,243.0,17.33,12.25,47.59359,-54.27349
2022-11-18 04:44:00+00:00,243.0,14.28,241.0,15.46,12.25,47.59359,-54.27349
2022-11-18 04:54:00+00:00,242.0,14.06,242.0,15.31,12.25,47.59359,-54.27349
2022-11-18 05:04:00+00:00,241.0,14.24,240.0,15.77,12.25,47.59359,-54.27349
2022-11-18 05:14:00+00:00,244.0,15.96,245.0,18.27,12.25,47.59359,-54.27349
2022-11-18 05:24:00+00:00,242.0,12.94,244.0,14.69,12.25,47.59359,-54.27349
2022-11-18 05:34:00+00:00,249.0,14.42,252.0,17.24,12.25,47.59359,-54.27349
2022-11-18 05:44:00+00:00,251.0,14.99,252.0,16.76,12.25,47.59359,-54.27349
2022-11-18 05:54:00+00:00,258.0,16.16,255.0,23.56,12.25,47.59359,-54.27349
2022-11-18 06:04:00+00:00,255.0,15.48,249.0,17.32,12.25,47.59359,-54.27349
2022-11-18 06:14:01+00:00,254.0,13.99,260.0,16.75,12.25,47.59359,-54.27349
2022-11-18 06:24:01+00:00,254.0,13.25,253.0,15.32,12.25,47.59359,-54.27349
2022-11-18 06:34:01+00:00,250.0,14.07,251.0,15.41,12.25,47.59359,-54.27349
2022-11-18 06:44:01+00:00,243.0,13.91,244.0,16.04,12.25,47.59359,-54.27349
2022-11-18 06:54:01+00:00,250.0,12.88,245.0,14.82,12.25,47.59359,-54.27349
2022-11-18 07:04:01+00:00,249.0,15.36,255.0,17.2,12.25,47.59359,-54.27349
2022-11-18 07:14:01+00:00,251.0,13.2,249.0,15.73,12.25,47.59359,-54.27349
2022-11-18 07:24:01+00:00,248.0,13.53,247.0,15.53,12.25,47.59359,-54.27349
2022-11-18 07:34:01+00:00,254.0,12.05,252.0,13.98,12.25,47.59359,-54.27349
2022-11-18 07:44:01+00:00,262.0,12.1,256.0,14.09,12.25,47.59359,-54.27349
2022-11-18 07:54:01+00:00,245.0,15.49,243.0,17.97,12.25,47.59359,-54.27349
2022-11-18 08:04:01+00:00,255.0,14.07,258.0,16.24,12.25,47.59359,-54.27349
2022-11-18 08:14:00+00:00,251.0,12.5,254.0,15.03,12.25,47.59359,-54.27349
2022-11-18 08:24:00+00:00,255.0,12.28,256.0,14.57,12.25,47.59359,-54.27349
2022-11-18 08:34:00+00:00,259.0,12.92,261.0,14.57,12.25,47.59359,-54.27349
2022-11-18 08:44:00+00:00,262.0,11.38,262.0,13.14,12.25,47.59359,-54.27349
2022-11-18 08:54:00+00:00,263.0,9.96,255.0,12.82,12.25,47.59359,-54.27349
2022-11-18 09:04:00+00:00,261.0,15.24,255.0,16.89,12.25,47.59359,-54.27349
2022-11-18 09:14:01+00:00,264.0,14.4,263.0,16.72,12.25,47.59359,-54.27349
2022-11-18 09:24:01+00:00,261.0,12.86,256.0,15.81,12.25,47.59359,-54.27349
2022-11-18 09:34:01+00:00,262.0,11.88,269.0,15.56,12.25,47.59359,-54.27349
2022-11-18 09:44:01+00:00,252.0,11.82,261.0,14.69,12.25,47.59359,-54.27349
2022-11-18 09:54:01+00:00,260.0,13.04,264.0,15.75,12.25,47.59359,-54.27349
2022-11-18 10:04:01+00:00,252.0,11.55,248.0,12.82,12.25,47.59359,-54.27349
2022-11-18 10:14:01+00:00,252.0,10.69,249.0,12.82,12.17,47.59359,-54.27349
2022-11-18 10:24:01+00:00,248.0,11.12,248.0,13.56,12.17,47.59359,-54.27349
2022-11-18 10:34:01+00:00,250.0,10.03,252.0,11.45,12.17,47.59359,-54.27349
2022-11-18 10:44:01+00:00,251.0,10.41,244.0,11.8,12.17,47.59359,-54.27349
2022-11-18 10:54:01+00:00,250.0,10.11,251.0,12.56,12.17,47.59359,-54.27349
2022-11-18 11:04:01+00:00,256.0,9.13,257.0,10.19,12.17,47.59359,-54.27349
2022-11-18 11:14:01+00:00,258.0,10.37,254.0,11.95,12.17,47.59359,-54.27349
2022-11-18 11:24:01+00:00,253.0,11.5,254.0,13.17,12.17,47.59359,-54.27349
2022-11-18 11:34:01+00:00,249.0,10.65,249.0,12.48,12.17,47.59359,-54.27349
2022-11-18 11:44:01+00:00,247.0,9.48,243.0,11.04,12.17,47.59359,-54.27349
2022-11-18 11:54:01+00:00,251.0,9.41,251.0,11.41,12.17,47.59359,-54.27349
2022-11-18 12:04:01+00:00,253.0,9.84,248.0,11.69,12.17,47.59359,-54.27349
2022-11-18 12:14:00+00:00,251.0,11.73,247.0,12.63,13.05,47.59359,-54.27349
2022-11-18 12:24:00+00:00,257.0,9.1,252.0,10.6,13.05,47.59359,-54.27349
2022-11-18 12:34:00+00:00,253.0,11.35,257.0,14.28,13.05,47.59359,-54.27349
2022-11-18 12:44:00+00:00,251.0,9.06,254.0,10.39,13.05,47.59359,-54.27349
2022-11-18 12:54:00+00:00,246.0,10.08,249.0,12.09,13.05,47.59359,-54.27349
2022-11-18 13:04:00+00:00,250.0,11.49,248.0,12.8,13.05,47.59359,-54.27349
2022-11-18 13:14:00+00:00,251.0,11.24,247.0,12.58,13.29,47.59359,-54.27349
2022-11-18 13:24:00+00:00,247.0,8.61,254.0,10.18,13.29,47.59359,-54.27349
2022-11-18 13:34:00+00:00,251.0,7.89,249.0,9.51,13.29,47.59359,-54.27349
2022-11-18 13:44:00+00:00,266.0,6.15,263.0,8.72,13.29,47.59359,-54.27349
2022-11-18 13:54:00+00:00,268.0,7.87,285.0,10.4,13.29,47.59359,-54.27349
2022-11-18 14:04:00+00:00,277.0,9.67,264.0,11.06,13.29,47.59359,-54.27349
2022-11-18 14:14:00+00:00,263.0,10.7,265.0,12.24,14.0,47.59359,-54.27349
2022-11-18 14:24:00+00:00,270.0,12.11,281.0,14.93,14.0,47.59359,-54.27349
2022-11-18 14:34:00+00:00,266.0,11.3,262.0,12.95,14.0,47.59359,-54.27349
2022-11-18 14:44:00+00:00,265.0,8.59,275.0,10.48,14.0,47.59359,-54.27349
2022-11-18 14:54:00+00:00,265.0,10.7,266.0,12.55,14.0,47.59359,-54.27349
2022-11-18 15:04:00+00:00,261.0,10.56,260.0,12.98,14.0,47.59359,-54.27349
2022-11-18 15:14:00+00:00,272.0,10.7,273.0,13.04,13.44,47.59359,-54.27349
2022-11-18 15:24:00+00:00,262.0,8.96,265.0,10.63,13.44,47.59359,-54.27349
2022-11-18 15:34:00+00:00,265.0,10.38,272.0,12.83,13.44,47.59359,-54.27349
2022-11-18 15:44:00+00:00,263.0,10.73,259.0,14.61,13.44,47.59359,-54.27349
2022-11-18 15:54:00+00:00,262.0,8.33,260.0,9.79,13.44,47.59359,-54.27349
2022-11-18 16:04:00+00:00,264.0,9.44,267.0,12.16,13.44,47.59359,-54.27349
2022-11-18 16:14:00+00:00,239.0,10.36,235.0,13.09,13.53,47.59359,-54.27349
2022-11-18 16:24:00+00:00,254.0,9.14,248.0,10.28,13.53,47.59359,-54.27349
2022-11-18 16:34:00+00:00,249.0,8.65,248.0,9.71,13.53,47.59359,-54.27349
2022-11-18 16:44:00+00:00,269.0,9.07,266.0,11.14,13.53,47.59359,-54.27349
2022-11-18 16:54:00+00:00,254.0,10.64,256.0,12.26,13.53,47.59359,-54.27349
2022-11-18 17:04:00+00:00,257.0,12.24,251.0,15.25,13.53,47.59359,-54.27349
2022-11-18 17:14:01+00:00,256.0,15.17,255.0,18.59,13.68,47.59359,-54.27349
2022-11-18 17:24:01+00:00,256.0,11.89,259.0,15.12,13.68,47.59359,-54.27349
2022-11-18 17:34:01+00:00,244.0,10.75,248.0,12.5,13.68,47.59359,-54.27349
2022-11-18 17:44:01+00:00,274.0,11.36,279.0,13.13,13.68,47.59359,-54.27349
2022-11-18 17:54:01+00:00,257.0,10.24,259.0,11.67,13.68,47.59359,-54.27349
2022-11-18 18:04:01+00:00,245.0,9.61,245.0,10.37,13.68,47.59359,-54.27349
2022-11-18 18:14:01+00:00,259.0,9.21,253.0,11.93,13.84,47.59359,-54.27349
2022-11-18 18:24:01+00:00,267.0,9.3,265.0,10.57,13.84,47.59359,-54.27349
2022-11-18 18:34:01+00:00,256.0,7.75,250.0,9.1,13.84,47.59359,-54.27349
2022-11-18 18:44:01+00:00,259.0,11.55,256.0,13.76,13.84,47.59359,-54.27349
2022-11-18 18:54:01+00:00,255.0,9.28,241.0,11.08,13.84,47.59359,-54.27349
2022-11-18 19:04:01+00:00,250.0,10.92,248.0,12.47,13.84,47.59359,-54.27349
2022-11-18 19:14:00+00:00,255.0,10.53,257.0,11.58,13.21,47.59359,-54.27349
2022-11-18 19:24:00+00:00,261.0,11.21,250.0,17.03,13.21,47.59359,-54.27349
2022-11-18 19:34:00+00:00,245.0,9.52,238.0,12.66,13.21,47.59359,-54.27349
2022-11-18 19:44:00+00:00,253.0,9.71,254.0,12.23,13.21,47.59359,-54.27349
2022-11-18 19:54:00+00:00,238.0,9.35,237.0,11.18,13.21,47.59359,-54.27349
2022-11-18 20:04:00+00:00,236.0,9.84,231.0,11.24,13.21,47.59359,-54.27349
2022-11-18 20:14:00+00:00,249.0,10.97,253.0,12.8,12.81,47.59359,-54.27349
2022-11-18 20:24:00+00:00,245.0,12.4,244.0,15.44,12.81,47.59359,-54.27349
2022-11-18 20:34:00+00:00,256.0,11.22,261.0,13.51,12.81,47.59359,-54.27349
2022-11-18 20:44:00+00:00,252.0,11.92,252.0,16.36,12.81,47.59359,-54.27349
2022-11-18 20:54:00+00:00,244.0,12.22,247.0,17.45,12.81,47.59359,-54.27349
2022-11-18 21:04:00+00:00,252.0,11.5,253.0,12.47,12.81,47.59359,-54.27349
2022-11-18 21:14:01+00:00,247.0,10.3,253.0,12.19,12.49,47.59359,-54.27349
2022-11-18 21:24:01+00:00,243.0,10.33,242.0,13.49,12.49,47.59359,-54.27349
2022-11-18 21:34:01+00:00,242.0,10.07,248.0,11.41,12.49,47.59359,-54.27349
2022-11-18 21:44:01+00:00,235.0,11.39,233.0,13.36,12.49,47.59359,-54.27349
2022-11-18 21:54:01+00:00,239.0,9.61,236.0,11.8,12.49,47.59359,-54.27349
2022-11-18 22:04:01+00:00,236.0,11.66,239.0,13.91,12.49,47.59359,-54.27349
2022-11-18 22:14:00+00:00,238.0,11.95,238.0,13.63,12.49,47.59359,-54.27349
2022-11-18 22:24:00+00:00,242.0,10.93,245.0,12.75,12.49,47.59359,-54.27349
2022-11-18 22:34:00+00:00,243.0,11.41,239.0,13.39,12.49,47.59359,-54.27349
2022-11-18 22:44:00+00:00,247.0,10.64,239.0,12.06,12.49,47.59359,-54.27349
2022-11-18 22:54:00+00:00,235.0,11.1,239.0,13.27,12.49,47.59359,-54.27349
2022-11-18 23:04:00+00:00,238.0,11.76,241.0,14.53,12.49,47.59359,-54.27349
2022-11-18 23:14:00+00:00,243.0,12.87,238.0,14.5,12.41,47.59359,-54.27349
2022-11-18 23:24:00+00:00,234.0,12.7,227.0,14.75,12.41,47.59359,-54.27349
2022-11-18 23:34:00+00:00,238.0,14.68,241.0,20.0,12.41,47.59359,-54.27349
2022-11-18 23:44:00+00:00,240.0,12.31,243.0,17.08,12.41,47.59359,-54.27349
2022-11-18 23:54:00+00:00,238.0,12.53,239.0,14.24,12.41,47.59359,-54.27349
